Kingsville Naval Air Station Kingsville US
ICAO: KNQI
IATA: NQI
Category: Medium
Scheduled Services: No

Elevation: 50 ft
TransAlt. 18000 ft.

Airport Communications:
APP:119.9
ATIS:27.62
CLNC DEL:32.84
DEP:26.68
GND:35.24
BASE OPS:27.48
PMSV METRO:34.46
TWR:124.1

KNQI Zoom In..

If you have problems with the map follow the link
https://www.worldairports.se/pages/airport.php?
ICAO=KNQI

Runways:

(A) RW 13L length 8000 ft width 200 ft
---- / hdg 127

(B) RW 13R length 8000 ft width 200 ft
ILS 110.90 / hdg 127

(C) RW 17L length 8000 ft width 200 ft
---- / hdg 172

(D) RW 17R length 8000 ft width 200 ft
---- / hdg 172

(E) RW 31L length 8000 ft width 200 ft
---- / hdg 307

(F) RW 31R length 8000 ft width 200 ft
---- / hdg 307

(G) RW 35L length 8000 ft width 200 ft
---- / hdg 352

(H) RW 35R length 8000 ft width 200 ft
---- / hdg 352

Location; KNQI
Day. 11 / Time. 12.56 Zulu
* Altimeter: 30.48
* Temperature: 08° c. 46.4°f.
* Wind from: 350° Speed 09 kn.
Dewpoint: 06° c.
Visibility: 10 Statute Miles.
Clouds: Overcast 1400 ft.

KNQI 111256Z 35009KT 10SM OVC014 08/06 A3048 RMK AO2 SLP317 T00830056


Wind From 350°
Speed 09 kn.

 
 
jpsmedia worldairports.se 2019   terms of use